Wind_Speed
44 46 48 50 52 53 55 57 59 61 63 66 67 69 70 70 70 71 72 72 73 73 73 73 73 72 72 70 69 68 67 67 66 66 65 64 64 64
49 51 52 54 56 57 60 62 63 65 67 69 71 72 71 71 71 71 71 71 72 72 72 71 70 69 67 66 65 64 63 62 61 60 60 60 60 59
53 55 56 57 59 61 63 64 66 67 69 69 69 69 68 68 68 68 68 68 68 67 66 66 65 63 62 61 59 58 57 56 56 55 54 54 55 55
56 57 58 60 62 64 65 67 67 66 65 64 64 64 63 63 62 62 62 61 61 60 59 58 57 57 55 53 52 52 51 50 49 49 49 49 49 49
59 60 61 63 63 63 63 62 61 59 59 58 57 57 57 56 55 55 55 55 54 53 51 50 49 48 46 45 44 44 43 43 43 44 44 45 45 45
60 60 60 61 60 58 56 55 55 54 53 52 52 51 51 51 50 50 49 48 46 45 43 42 40 39 38 38 38 38 38 38 39 40 41 42 43 43
58 57 56 56 54 53 52 50 48 47 47 46 45 45 45 44 43 42 41 39 38 37 36 36 34 34 34 33 33 33 34 36 37 38 39 40 41 41
53 53 52 50 48 46 45 43 42 41 40 40 39 38 37 36 36 35 34 32 31 31 30 30 30 30 30 30 31 32 34 35 36 37 38 38 38 38
48 47 46 44 42 41 39 37 36 34 33 33 32 31 31 31 30 29 28 27 27 26 25 26 27 28 29 31 32 33 34 34 35 35 36 36 36 36
44 43 41 38 36 34 32 30 29 28 27 26 26 26 26 25 25 24 24 24 24 24 24 24 26 28 30 31 32 32 32 32 33 33 33 32 32 32
36 33 31 28 26 24 23 22 21 20 20 21 21 21 20 20 21 21 21 21 22 24 24 25 26 28 29 30 31 30 30 30 29 29 28 27 26 26
25 23 21 18 17 16 16 15 15 15 16 16 16 16 17 18 19 19 20 21 22 23 24 25 25 25 26 27 27 28 27 26 25 24 23 22 21 19
17 15 13 12 12 12 12 12 12 13 13 13 14 15 16 17 18 19 20 21 22 23 23 22 22 23 23 23 24 24 23 22 22 21 19 17 15 13
11 10 9 9 9 9 10 11 12 12 13 13 14 14 16 17 18 19 20 21 21 21 21 21 21 21 22 22 22 21 21 20 19 17 15 13 11 9
8 8 8 8 9 10 11 12 13 13 13 14 14 15 17 18 19 19 20 20 20 20 21 21 21 21 21 21 21 20 19 18 17 16 14 12 11 9
8 9 9 9 10 11 12 13 14 14 14 15 15 16 18 18 18 19 19 20 20 20 20 20 20 21 21 21 20 20 18 17 16 16 15 14 13 12
8 9 10 10 11 11 12 13 14 14 14 15 15 17 17 18 18 18 19 19 19 19 19 20 20 20 21 20 20 19 18 18 17 17 16 16 15 15
9 10 10 11 11 12 12 13 14 14 14 14 15 17 17 17 17 18 18 18 18 19 19 20 20 20 20 20 20 19 19 19 19 19 18 17 17 16
10 10 11 11 11 12 12 12 13 14 15 15 16 17 17 17 17 17 17 18 18 18 18 19 20 20 20 20 21 21 20 20 19 19 19 19 18 18
9 10 11 11 11 11 12 12 14 15 16 16 16 17 17 17 16 16 17 17 17 18 18 19 19 20 20 21 22 22 22 21 20 20 20 20 19 19
9 10 10 11 11 12 13 13 14 15 16 16 16 17 17 16 16 16 16 16 17 17 18 18 19 20 21 22 22 22 22 22 22 21 21 20 20 20
9 10 10 11 11 12 13 14 15 16 17 16 16 17 16 16 16 15 15 16 16 17 17 18 19 19 20 21 21 22 22 22 22 21 21 21 20 19
9 9 10 11 11 12 13 14 15 16 16 16 16 16 16 16 16 15 15 15 16 16 17 18 18 19 19 20 20 21 21 21 21 21 21 20 20 19
Wind_Direction
281 281 281 281 281 281 281 281 282 282 282 282 282 282 281 281 281 281 281 281 281 281 282 282 282 282 282 283 283 284 283 282 281 280 279 278 277 276
283 282 282 282 282 282 281 281 282 282 281 282 282 282 282 281 281 281 282 282 281 282 283 283 283 283 283 284 284 283 282 281 280 279 279 278 277 276
284 283 282 283 283 282 282 282 282 282 282 282 282 283 283 283 283 283 283 283 283 283 284 284 284 284 284 284 283 282 281 281 280 279 278 278 277 276
284 283 282 282 282 282 283 283 283 284 283 283 285 285 285 285 285 285 285 285 286 286 286 286 286 285 284 283 282 281 281 281 280 279 278 277 277 276
285 283 283 284 284 284 284 284 285 285 286 286 287 287 287 287 287 287 287 288 288 289 289 288 287 285 284 283 283 283 283 282 280 279 278 277 276 276
286 286 286 287 286 286 287 287 287 287 287 288 288 288 289 289 289 289 290 291 292 292 291 290 288 287 286 286 286 286 285 284 283 281 280 279 277 275
289 288 288 289 289 289 289 289 289 289 289 290 291 291 292 293 294 294 293 294 294 295 295 294 293 292 291 290 290 290 290 288 286 284 283 281 279 276
291 290 290 290 291 291 292 292 291 292 292 292 294 295 297 298 299 299 299 299 299 299 299 298 298 297 297 297 297 297 296 294 291 289 287 285 282 279
293 293 293 293 293 293 293 294 295 295 295 296 298 300 301 302 303 304 305 305 305 304 303 303 302 302 302 302 302 302 301 299 296 294 291 289 285 282
296 296 296 295 295 295 296 296 296 297 298 300 303 305 305 307 308 308 309 309 309 309 309 308 307 307 306 307 308 307 305 303 301 299 297 294 289 284
299 300 301 301 302 301 302 302 303 305 307 308 310 311 312 314 314 315 315 314 314 315 314 314 313 313 312 313 313 313 311 309 307 306 303 300 296 290
304 306 308 310 311 311 312 314 316 318 320 320 320 321 323 323 324 323 322 322 321 320 320 319 319 318 318 319 320 320 319 318 317 315 312 309 305 300
315 318 320 322 325 327 330 334 335 337 338 338 338 337 336 334 332 332 331 330 329 329 330 330 329 329 330 330 330 331 331 331 330 329 327 324 321 316
334 339 344 348 351 352 353 354 355 357 356 354 351 350 348 345 343 341 340 340 339 341 342 342 342 342 342 342 343 343 343 344 345 345 345 345 346 344
6 11 13 14 14 11 11 11 12 10 7 4 1 357 354 351 349 348 349 349 349 349 350 351 352 353 354 355 355 357 359 0 2 4 7 10 13 16
22 26 27 28 27 22 20 18 16 13 12 10 5 1 359 357 356 356 356 355 355 357 358 359 1 2 3 4 5 7 11 14 18 22 26 30 34 39
36 34 37 37 31 26 21 18 15 14 14 11 9 5 4 3 2 3 3 2 3 4 6 9 10 10 12 15 17 20 25 29 31 34 39 44 48 51
44 44 42 36 30 25 21 19 18 18 17 15 12 9 9 8 8 8 8 9 11 12 14 16 18 20 23 25 28 31 35 39 42 44 48 52 55 57
50 46 39 33 29 27 25 24 23 22 20 17 14 13 13 13 13 13 15 17 18 20 21 23 25 28 31 34 37 39 43 46 48 50 53 56 58 58
49 44 37 33 32 31 29 28 25 23 20 18 16 16 16 17 17 19 21 22 25 26 28 30 32 36 39 42 43 45 48 50 52 54 56 59 60 61
43 38 35 35 33 31 28 25 23 21 19 18 18 18 20 22 23 24 25 27 30 32 34 36 39 43 45 46 46 48 51 53 55 57 58 60 61 61
38 35 35 34 31 28 25 23 20 19 19 20 21 22 24 26 28 30 31 33 35 38 40 42 44 46 47 48 48 50 52 54 56 57 56 57 58 58
34 35 34 30 27 25 22 20 19 19 20 22 23 25 27 29 31 34 36 38 40 43 45 46 47 48 50 50 51 52 53 54 55 55 54 54 54 55
Height
5787 5784 5781 5778 5774 5770 5766 5762 5758 5753 5748 5742 5738 5732 5727 5722 5718 5713 5708 5704 5699 5693 5688 5684 5680 5676 5672 5668 5664 5661 5657 5654 5650 5647 5644 5642 5640 5638
5775 5771 5768 5764 5760 5755 5751 5746 5740 5735 5730 5723 5718 5713 5707 5702 5697 5693 5688 5684 5679 5674 5669 5664 5660 5657 5653 5649 5646 5642 5639 5635 5632 5629 5626 5623 5621 5619
5760 5757 5753 5748 5744 5739 5734 5728 5723 5717 5711 5704 5698 5693 5688 5683 5678 5674 5669 5665 5660 5656 5651 5646 5643 5639 5636 5632 5628 5625 5621 5618 5615 5612 5609 5606 5604 5602
5746 5741 5737 5732 5727 5721 5716 5710 5704 5698 5692 5686 5680 5675 5670 5666 5662 5657 5652 5647 5642 5638 5634 5630 5626 5622 5619 5616 5612 5609 5606 5602 5599 5596 5593 5591 5589 5586
5730 5725 5720 5714 5709 5703 5698 5692 5686 5681 5676 5671 5665 5659 5655 5650 5647 5642 5637 5632 5627 5623 5620 5616 5612 5608 5605 5602 5599 5596 5592 5589 5585 5582 5579 5576 5574 5572
5713 5707 5702 5697 5691 5686 5681 5676 5671 5666 5661 5656 5651 5646 5641 5637 5633 5628 5624 5619 5615 5610 5607 5603 5600 5597 5593 5590 5587 5584 5580 5576 5572 5569 5566 5563 5560 5558
5696 5690 5685 5680 5675 5670 5666 5661 5656 5652 5648 5643 5639 5634 5630 5625 5621 5616 5613 5608 5604 5600 5596 5593 5589 5586 5583 5580 5576 5573 5568 5564 5560 5557 5553 5550 5546 5544
5681 5675 5670 5666 5661 5656 5653 5648 5644 5640 5636 5632 5628 5624 5620 5616 5611 5607 5603 5600 5596 5592 5588 5584 5580 5577 5574 5570 5566 5562 5558 5553 5549 5544 5540 5536 5533 5530
5667 5661 5656 5652 5648 5645 5641 5637 5634 5631 5627 5624 5620 5616 5612 5608 5604 5600 5596 5592 5589 5585 5582 5578 5574 5570 5566 5562 5558 5553 5548 5542 5537 5533 5528 5524 5520 5517
5654 5649 5644 5640 5637 5633 5630 5628 5626 5623 5620 5617 5614 5610 5607 5603 5599 5596 5592 5588 5584 5580 5576 5572 5568 5563 5558 5553 5548 5544 5538 5533 5527 5522 5517 5513 5509 5506
5643 5638 5634 5631 5628 5625 5623 5622 5620 5617 5615 5612 5609 5606 5603 5599 5595 5592 5588 5584 5580 5576 5571 5567 5562 5557 5551 5546 5540 5535 5529 5524 5518 5513 5508 5503 5499 5496
5635 5631 5628 5626 5624 5621 5620 5618 5616 5613 5611 5609 5606 5603 5600 5596 5593 5589 5585 5581 5576 5572 5567 5562 5557 5552 5546 5540 5535 5528 5522 5516 5511 5506 5501 5496 5492 5489
5630 5627 5625 5623 5621 5619 5617 5616 5614 5611 5609 5607 5604 5601 5598 5594 5591 5587 5582 5578 5573 5568 5563 5558 5552 5547 5541 5536 5530 5524 5518 5512 5506 5501 5496 5492 5488 5485
5628 5626 5624 5622 5620 5619 5617 5615 5613 5611 5608 5606 5603 5600 5597 5593 5589 5585 5580 5575 5570 5565 5560 5555 5549 5544 5538 5533 5527 5521 5515 5509 5504 5499 5494 5490 5487 5484
5628 5626 5624 5623 5621 5620 5618 5615 5613 5611 5608 5606 5603 5600 5596 5592 5588 5584 5579 5574 5569 5564 5558 5553 5548 5542 5537 5531 5525 5520 5514 5509 5504 5499 5495 5491 5488 5485
5629 5628 5626 5624 5623 5621 5619 5617 5614 5612 5609 5606 5603 5600 5596 5592 5588 5583 5578 5573 5568 5563 5558 5552 5547 5542 5536 5531 5525 5520 5515 5510 5505 5501 5497 5493 5490 5487
5631 5629 5628 5626 5625 5623 5621 5618 5616 5613 5610 5607 5604 5600 5596 5592 5588 5583 5578 5573 5568 5563 5558 5553 5548 5543 5537 5532 5526 5522 5517 5512 5508 5504 5500 5497 5494 5492
5633 5632 5630 5628 5627 5624 5622 5620 5617 5614 5611 5608 5604 5601 5596 5592 5588 5584 5579 5574 5569 5564 5559 5555 5550 5545 5540 5535 5530 5525 5520 5516 5512 5508 5505 5502 5499 5497
5636 5634 5632 5630 5628 5626 5624 5621 5619 5616 5612 5609 5605 5601 5597 5593 5589 5584 5580 5575 5571 5566 5562 5557 5552 5548 5543 5538 5534 5529 5525 5521 5517 5514 5510 5507 5505 5502
5638 5636 5634 5632 5630 5628 5625 5622 5620 5617 5613 5609 5606 5602 5597 5594 5589 5585 5581 5577 5573 5569 5564 5560 5555 5551 5547 5543 5538 5534 5530 5526 5523 5520 5517 5514 5511 5509
5640 5638 5636 5634 5631 5629 5626 5624 5621 5618 5614 5610 5606 5602 5598 5595 5591 5587 5583 5579 5575 5572 5568 5564 5559 5555 5551 5547 5543 5540 5536 5532 5529 5526 5523 5520 5518 5515
5642 5640 5638 5635 5633 5630 5628 5625 5622 5618 5615 5611 5607 5604 5600 5596 5592 5589 5585 5582 5578 5575 5571 5567 5563 5560 5556 5553 5549 5545 5542 5539 5535 5532 5529 5527 5525 5522
5643 5641 5639 5637 5634 5632 5629 5626 5623 5620 5616 5612 5609 5605 5601 5598 5594 5591 5588 5584 5581 5578 5574 5571 5568 5564 5561 5558 5554 5551 5548 5545 5542 5539 5536 5533 5531 5528